Terre Haute, IN

6:11 PM EST on January 18, 2017 (GMT -0500)
Terre Haute International-Hulman

Weather History for KHUF - January, 2014

Change the Weather History Date:

Thursday, January 23, 2014

  Actual Average Record
Temperature  
Mean Temperature 6 °F 28 °F  
Max Temperature 12 °F 36 °F 62 °F (1964)
Min Temperature -1 °F 20 °F -10 °F (1963)
Degree Days  
Heating Degree Days 59 37  
Month to date heating degree days 973 851  
Since 1 July heating degree days 3178 2962  
Cooling Degree Days 0 0  
Month to date cooling degree days 0 0  
Year to date cooling degree days 0 0  
Moisture  
Dew Point -6 °F    
Average Humidity 67    
Maximum Humidity 75    
Minimum Humidity 59    
Precipitation  
Precipitation T in 0.05 in 1.16 in (1982)
Month to date precipitation 1.76 1.93  
Year to date precipitation 1.76 1.93  
Sea Level Pressure  
Sea Level Pressure 30.53 in    
Wind  
Wind Speed 12 mph (WNW)    
Max Wind Speed 24 mph    
Max Gust Speed 32 mph    
Visibility 10 miles    
Events Snow    
T = Trace of Precipitation, MM = Missing Value Source: NWS Daily Summary

Daily Weather History Graph

Daily Weather History Graph

Search for Another Location

Airport or City:

Trip Planner

Search our weather history database for the weather conditions in past years. The results will help you decide how hot, cold, wet, or windy it might be!

Date:

Astronomy

Jan. 23, 2014 Rise Set
Actual Time 8:03 AM EST 5:59 PM EST
Civil Twilight 7:34 AM EST 6:27 PM EST
Nautical Twilight 7:02 AM EST 7:00 PM EST
Astronomical Twilight 6:30 AM EST 7:32 PM EST
Moon 12:27 AM EST (1/23) 11:40 AM EST (1/23)
Length of Visible Light 10h 53m
Length of Day
9h 55m
Waning Gibbous, 55% of the Moon is Illuminated
Jan 23
Waning Gibbous
Jan 24
Last Quarter
Jan 30
New
Feb 6
First Quarter
Feb 14
Full

Hourly Weather History & Observations

Time (EST) Temp. Windchill Dew Point Humidity Pressure Visibility Wind Dir Wind Speed Gust Speed Precip Events Conditions
12:03 AM 12.2 °F -3.1 °F 5.0 °F 73% 30.18 in 4.0 mi NW 13.8 mph - 0.00 in Snow Light Snow
12:53 AM 8.1 °F -10.2 °F -2.0 °F 64% 30.25 in 5.0 mi NW 17.3 mph 31.1 mph 0.00 in Snow Light Snow
1:07 AM 6.8 °F -11.8 °F -2.2 °F 67% 30.22 in 6.0 mi NW 17.3 mph 32.2 mph 0.00 in Snow Light Snow
1:26 AM 6.8 °F -12.4 °F -4.0 °F 61% 30.24 in 10.0 mi NW 18.4 mph 24.2 mph 0.00 in   Overcast
1:38 AM 6.8 °F -11.8 °F -4.0 °F 61% 30.24 in 9.0 mi NW 17.3 mph 26.5 mph 0.00 in   Overcast
1:53 AM 6.1 °F -13.8 °F -4.0 °F 63% 30.28 in 9.0 mi NW 19.6 mph 26.5 mph 0.00 in Snow Light Snow
2:53 AM 3.9 °F -12.2 °F -5.1 °F 66% 30.32 in 9.0 mi NW 11.5 mph 26.5 mph 0.00 in Snow Light Snow
3:53 AM 3.0 °F -14.1 °F -5.1 °F 69% 30.36 in 10.0 mi WNW 12.7 mph 24.2 mph 0.00 in   Overcast
4:25 AM 1.4 °F -16.9 °F -9.4 °F 61% 30.35 in 10.0 mi NW 13.8 mph 25.3 mph 0.00 in   Scattered Clouds
4:53 AM 1.0 °F -17.3 °F -9.9 °F 60% 30.40 in 10.0 mi NW 13.8 mph - 0.00 in   Clear
5:53 AM 1.0 °F -16.6 °F -9.0 °F 63% 30.43 in 10.0 mi WNW 12.7 mph - N/A   Partly Cloudy
6:53 AM -0.0 °F -18.0 °F -11.0 °F 60% 30.47 in 10.0 mi WNW 12.7 mph 21.9 mph 0.00 in   Clear
7:53 AM -0.9 °F -19.1 °F -11.0 °F 62% 30.51 in 10.0 mi WNW 12.7 mph - N/A   Clear
8:53 AM -0.9 °F -18.3 °F -11.0 °F 62% 30.54 in 10.0 mi WNW 11.5 mph 20.7 mph N/A   Clear
9:53 AM -0.0 °F -22.4 °F -11.0 °F 60% 30.58 in 9.0 mi NW 20.7 mph 29.9 mph 0.00 in Snow Light Snow
10:43 AM 1.4 °F -18.2 °F -9.4 °F 61% 30.56 in 10.0 mi WNW 16.1 mph 26.5 mph 0.00 in   Mostly Cloudy
10:53 AM 1.0 °F -19.3 °F -9.9 °F 60% 30.61 in 10.0 mi NW 17.3 mph 23.0 mph 0.00 in   Overcast
11:07 AM 1.4 °F -15.3 °F -9.4 °F 61% 30.57 in 9.0 mi NW 11.5 mph 24.2 mph 0.00 in Snow Light Snow
11:53 AM 3.0 °F -14.8 °F -8.0 °F 60% 30.63 in 10.0 mi WNW 13.8 mph - 0.00 in   Scattered Clouds
12:04 PM 3.2 °F -15.9 °F -7.6 °F 61% 30.59 in 10.0 mi NW 16.1 mph 21.9 mph N/A   Mostly Cloudy
12:53 PM 3.9 °F -11.3 °F -7.1 °F 60% 30.64 in 10.0 mi WNW 10.4 mph 20.7 mph N/A   Mostly Cloudy
1:36 PM 5.0 °F -13.0 °F -5.8 °F 61% 30.59 in 10.0 mi NW 15.0 mph - N/A   Scattered Clouds
1:53 PM 5.0 °F -10.0 °F -6.0 °F 61% 30.63 in 10.0 mi WNW 10.4 mph 18.4 mph N/A   Partly Cloudy
2:16 PM 5.0 °F -12.3 °F -5.8 °F 61% 30.59 in 10.0 mi West 13.8 mph - N/A   Mostly Cloudy
2:53 PM 6.1 °F -9.5 °F -5.1 °F 60% 30.64 in 10.0 mi WNW 11.5 mph 20.7 mph N/A   Mostly Cloudy
3:38 PM 6.8 °F -9.3 °F -5.8 °F 56% 30.60 in 10.0 mi NW 12.7 mph - N/A   Partly Cloudy
3:53 PM 6.1 °F -10.9 °F -5.1 °F 60% 30.65 in 10.0 mi WNW 13.8 mph - N/A   Scattered Clouds
4:15 PM 5.0 °F -10.8 °F -5.8 °F 61% 30.62 in 10.0 mi WNW 11.5 mph - N/A   Mostly Cloudy
4:53 PM 5.0 °F -11.6 °F -5.1 °F 63% 30.68 in 10.0 mi NW 12.7 mph - N/A   Mostly Cloudy
5:53 PM 5.0 °F -8.1 °F -4.0 °F 66% 30.69 in 10.0 mi WNW 8.1 mph - N/A   Overcast
6:27 PM 3.2 °F -11.3 °F -5.8 °F 66% 30.65 in 10.0 mi WNW 9.2 mph - N/A   Scattered Clouds
6:53 PM 3.9 °F -9.4 °F -5.1 °F 66% 30.70 in 10.0 mi WNW 8.1 mph - N/A   Scattered Clouds
7:53 PM 3.0 °F -10.5 °F -5.1 °F 69% 30.71 in 10.0 mi WNW 8.1 mph - N/A   Clear
8:53 PM 3.0 °F -9.3 °F -5.1 °F 69% 30.71 in 10.0 mi West 6.9 mph - N/A   Clear
9:53 PM 1.9 °F -11.8 °F -6.0 °F 69% 30.71 in 10.0 mi WNW 8.1 mph - N/A   Clear
10:53 PM 1.9 °F -10.6 °F -7.1 °F 66% 30.71 in 10.0 mi WNW 6.9 mph - N/A   Clear
11:53 PM 1.0 °F -10.3 °F -8.0 °F 66% 30.71 in 10.0 mi West 5.8 mph - N/A   Clear